Location: Beau Repaire
(50.6144°N, 4.0551°E)
Time: 08:23:49
(UTC+00:00)

Landsat 5 - Pass Details

Date: 15 May 2026
Orbit: 505 x 601 km, 98.1° (Epoch: 6 June)

Event Time Altitude Azimuth Distance (km) Brightness Sun altitude
Rises 23:41:28 0° 20° (NNE) 2,801 8.2 -20.3°
Reaches altitude 10° 23:43:47 10° 28° (NNE) 1,881 6.9 -20.3°
Maximum altitude 23:47:36 38° 98° (E) 866 4.2 -20.3°
Enters shadow 23:48:08 36° 118° (ESE) 895 4.1 -20.3°
